Skip Page Navigation
NASA JPL Caltech
NASA Logo - Jet Propulsion Laboratory + View the NASA Portal
+ Center for Near-Earth Object Studies
JPL Home Earth Solar System Stars & Galaxies Technology
JPL Solar System Dynamics
BODIES ORBITS EPHEMERIDES TOOLS PHYSICAL DATA DISCOVERY FAQ SITE MAP
JPL Small-Body Database Browser
Search: [ help ]  
3839 Bogaevskij (1971 OU)
Classification: Main-belt Asteroid          SPK-ID: 2003839
Ephemeris | Orbit Diagram | Orbital Elements | Mission Design | Physical Parameters | Discovery Circumstances | Close-Approach Data ]

[ show orbit diagram ]
Orbital Elements at Epoch 2459000.5 (2020-May-31.0) TDB
Reference: JPL 35 (heliocentric ecliptic J2000)
 Element Value Uncertainty (1-sigma)   Units 
e .1831785310506551 2.9219e-08  
a 2.449373717052531 7.4721e-09 au
q 2.000701037568766 7.225e-08 au
i 2.688934805027279 3.0098e-06 deg
node 240.6356527207124 7.9051e-05 deg
peri 36.72651300155993 7.957e-05 deg
M 288.3930625920662 1.0339e-05 deg
tp 2459279.005390683496
(2021-Mar-05.50539068)
4.0591e-05 TDB
period 1400.170769416957
3.83
6.4071e-06
1.754e-08
d
yr
n .2571114951570565 1.1765e-09 deg/d
Q 2.898046396536297 8.8408e-09 au
  Orbit Determination Parameters
   # obs. used (total)      2760  
   data-arc span      17910 days (49.03 yr)  
   first obs. used      1971-07-26  
   last obs. used      2020-08-07  
   planetary ephem.      DE431  
   SB-pert. ephem.      SB431-N16  
   condition code      0  
   norm. resid. RMS      .45959  
   source      ORB  
   producer      Otto Matic  
   solution date      2020-Nov-13 03:56:46  

Additional Information
 Earth MOID = .985083 au 
 Jupiter MOID = 2.22676 au 
 T_jup = 3.472 
[ show covariance matrix ]

Ephemeris | Orbit Diagram | Orbital Elements | Mission Design | Physical Parameters | Discovery Circumstances | Close-Approach Data ]

Physical Parameter Table
Parameter Symbol Value Units Sigma Reference Notes
absolute magnitude H 13.2   n/a MPO381287  
diameter diameter 7.402 km 0.387 urn:nasa:pds:neowise_diameters_albedos::2.0[mainbelt] (http://adsabs.harvard.edu/abs/2012ApJ...759L...8M)  
rotation period rot_per 129.936 h n/a LCDB (Rev. 2019-August); Warner et al., 2009 Result based on less than full coverage, so that the period may be wrong by 30 percent or so.
Published Reference List:
[Waszczak, A.; Chang, C.-K.; Ofeck, E.O.; Laher, F.; et al. (2015) Astron. J. 150, A75.]
geometric albedo albedo 0.185   0.034 urn:nasa:pds:neowise_diameters_albedos::2.0[mainbelt] (http://adsabs.harvard.edu/abs/2012ApJ...759L...8M)  

3839 Bogaevskij (1971 OU)          Discovered 1971-Jul-26 by Chernykh, N. at Nauchnyj
Reference: DISCOVERY.DBLast Updated: 2003-08-29

[ show close-approach data ]
Alternate Designations
 1971 OU = 1976 YN3 = 1979 SQ12 = 1979 SQ6 
Ephemeris | Orbit Diagram | Orbital Elements | Mission Design | Physical Parameters | Discovery Circumstances | Close-Approach Data ]
ABOUT SSD CREDITS/AWARDS PRIVACY/COPYRIGHT GLOSSARY LINKS
FirstGov 2020-Nov-26 19:06 UT
(server date/time)  
NASA Home Page
Site Manager:   Ryan S. Park
Webmaster  Alan B. Chamberlin